sat.trackr.live / text

‹ back to catalog

STARLINK-2356

NORAD 47896 · 2021-021AN

PAYLOAD ACTIVE UNKNOWN

§ Identity

Operator
Country
US
Launch date
2021-03-14
Launch site
AFETR
Launch vehicle
Mass (kg)
RCS (m²)

Purposes: comms

External: N2YO · Heavens-Above · Gunter

§ Orbital elements

Epoch: 2026-09-20T03:19:57.636192Z

Period
94.01 min
Inclination
53.1605°
Eccentricity
0.0000985
Mean motion
15.31701580 rev/d
Perigee alt
470.1 km
Apogee alt
471.4 km
Semi-major
6,848.9 km
B*
-4.1585e-6
RAAN
96.0363°
Arg perigee
76.8460°
Mean anomaly
283.2651°
Rev number
30,581

§ Raw data

STARLINK-23561 47896U 21021AN  26263.13886153 -.00000494  00000+0 -41585-5 0  99902 47896  53.1605  96.0363 0000985  76.8460 283.2651 15.31701580305811

JSON: /api/v1/satellites/47896 · /tle

For live sub-satellite position, see the globe view (requires WebGL).

§ Visibility from observer

Set your observer location to see the next 7 days of passes ≥ 10°. The values pass through the URL so the page stays shareable.

No JS? Fill the form by hand. The geolocation button needs JavaScript.